Location: Alpine
(43.1636°N, 111.0180°W)
Time: 03:53:36
(UTC+00:00)

X-37B - Visible Passes

Search period start: 27 January 2022 00:00
Search period end: 06 February 2022 00:00
Orbit: 334 x 337 km, 45.0° (Epoch: 11 January)

Date Brightness Start Highest point End Pass type
(mag) Time Alt. Az. Time Alt. Az. Time Alt. Az.
27 Jan 2.3 02:26:00 10° SW 02:27:26 24° SSW 02:27:26 24° SSW visible
28 Jan 2.3 01:11:49 10° SSW 01:13:53 19° SSE 01:15:56 10° E visible
28 Jan 3.2 02:46:15 10° WSW 02:47:10 18° WSW 02:47:10 18° WSW visible
29 Jan 1.0 01:31:26 10° SW 01:34:08 41° SSE 01:35:37 21° E visible
29 Jan 4.1 03:06:46 10° W 03:06:51 11° W 03:06:51 11° W visible
30 Jan 0.2 01:51:42 10° WSW 01:54:32 86° SSE 01:55:16 45° ENE visible
31 Jan 0.6 02:12:12 10° W 02:14:53 60° NNW 02:14:53 60° NNW visible
01 Feb 2.1 02:32:45 10° WNW 02:34:29 31° WNW 02:34:29 31° WNW visible
02 Feb 0.5 01:17:37 10° W 01:20:26 62° N 01:22:51 13° ENE visible
02 Feb 3.3 02:53:15 10° WNW 02:54:05 17° WNW 02:54:05 17° WNW visible
03 Feb 0.6 01:38:11 10° WNW 01:40:59 55° N 01:42:28 23° ENE visible
04 Feb 0.3 01:58:40 10° WNW 02:01:30 68° N 02:02:08 47° ENE visible
05 Feb 0.4 02:19:08 10° WNW 02:21:52 71° SW 02:21:52 71° SW visible
